Location: Milton Keynes
(52.0316°N, 0.7531°W)
Time: 10:25:40
(UTC+00:00)

Envisat - Pass Details

Date: 27 January 2019
Orbit: 764 x 766 km, 98.2° (Epoch: 22 February)

Event Time Altitude Azimuth Distance (km) Brightness Sun altitude
Rises 20:24:20 0° 223° (SW) 3,226 6.6 -34.0°
Reaches altitude 10° 20:28:14 10° 254° (WSW) 2,307 6.1 -34.6°
Maximum altitude 20:30:11 12° 277° (W) 2,165 6.1 -34.9°
Drops below altitude 10° 20:32:09 10° 299° (WNW) 2,313 6.2 -35.1°
Sets 20:36:05 0° 330° (NNW) 3,246 6.8 -35.7°
